Weather observations for the past three days for
Saginaw County H W Browne Airport
Imperial (Metric)
Date Time (edt) Wind (mph) Vis. (mi.) Weather Sky Cond. Temperature (ºF) Relative Humidity Wind Chill (°F) Heat Index (°F) Pressure Precipitation (in)
Air Dwpt 6 hour altimeter (in) sea level (mb) 1 hr 3 hr 6 hr
Max. Min.
31 11:35 SW 6 6.00 Light Rain Fog/Mist SCT070 BKN100 OVC120 71.6 69.8 94% 30.03 0.0
31 11:15 Calm 8.00 Light Rain SCT060 BKN070 OVC090 71.6 69.8 94% 30.03 0.0
31 10:55 W 6 8.00 Light Rain FEW046 SCT070 OVC090 71.6 68 88% 30.05 0.0 0.01
31 10:35 NW 5 9.00 Light Rain OVC100 69.8 68 94% 30.03 0.0
31 10:15 W 6 10.00 Light Rain BKN090 OVC110 69.8 68 94% 30.01 0.0
31 09:55 SW 7 10.00 Overcast OVC090 69.8 68 94% 30.01 0.0
31 09:35 SW 7 10.00 Overcast OVC100 71.6 68 88% 30 0.0
31 09:15 SW 6 10.00 Mostly Cloudy BKN090 BKN110 71.6 68 88% 30 0.0
31 08:55 SW 7 10.00 Mostly Cloudy BKN090 BKN110 71.6 68 88% 30 0.0
31 08:35 SW 8 10.00 A Few Clouds FEW110 71.6 66.2 83% 29.99 0.0
31 08:15 SW 7 10.00 Mostly Cloudy BKN120 69.8 66.2 88% 29.98 0.0
31 07:55 SW 5 10.00 Partly Cloudy SCT120 69.8 66.2 72 67.6 88% 29.99 0.0
31 07:35 S 8 10.00 A Few Clouds FEW110 68 66.2 94% 29.98 0.0
31 07:15 S 6 10.00 Mostly Cloudy BKN110 68 66.2 94% 29.98 0.0
31 06:55 S 3 10.00 Overcast OVC110 68 66.2 94% 29.99 0.0
31 06:35 SE 5 10.00 Light Rain BKN090 BKN120 68 66.2 94% 29.99 0.0
31 06:15 SE 2 10.00 Overcast OVC090 68 66.2 94% 30 0.0
31 05:55 S 3 10.00 Overcast OVC090 68 66.2 94% 30 0.0
31 05:35 SW 3 10.00 Overcast OVC090 68 66.2 94% 29.99 0.0
31 05:15 SW 2 10.00 Overcast OVC090 68 66.2 94% 30 0.0
31 04:55 SE 1 10.00 Overcast OVC100 68 66.2 94% 30 0.0
31 04:35 S 2 9.00 Overcast OVC100 68 66.2 94% 29.99 0.0
31 04:15 S 1 10.00 Overcast OVC100 68 66.2 94% 29.98 0.0
31 03:55 S 5 10.00 Mostly Cloudy BKN100 68 66.2 94% 29.97 0.0
31 03:35 S 3 10.00 Fair CLR 69.8 66.2 88% 29.98 0.0
31 03:15 SW 5 10.00 A Few Clouds FEW100 69.8 66.2 88% 29.99 0.0
31 02:55 SW 6 10.00 A Few Clouds FEW100 69.8 66.2 88% 29.99 0.0
31 02:35 SW 6 10.00 Mostly Cloudy BKN100 71.6 66.2 83% 30 0.0
31 02:15 SW 8 10.00 Overcast OVC100 71.6 66.2 83% 30 0.0
31 01:55 SW 6 10.00 Overcast OVC100 71.6 66.2 73.9 70.5 83% 30 0.0
31 01:35 SW 7 10.00 Overcast OVC100 71.6 66.2 83% 30 0.0
31 01:15 SW 6 10.00 Overcast OVC100 71.6 68 88% 30 0.0
31 00:55 SW 8 10.00 Overcast OVC090 71.6 68 88% 30 0.0
31 00:35 SW 7 10.00 Overcast OVC090 71.6 68 88% 29.99 0.0
31 00:15 Vrbl 2 10.00 Overcast OVC080 71.6 68 88% 29.99 0.0
30 23:55 S 3 10.00 Overcast OVC080 71.6 68 88% 30 0.0
30 23:35 S 5 10.00 Overcast OVC080 71.6 66.2 83% 30 0.0
30 23:15 S 5 10.00 Overcast OVC080 71.6 66.2 83% 30 0.0
30 22:55 S 6 10.00 Overcast OVC085 71.6 66.2 83% 29.99 0.0 0.01
30 22:35 S 7 10.00 Mostly Cloudy BKN095 71.6 66.2 83% 29.99 0.0
30 22:15 S 7 10.00 Fair CLR 71.6 66.2 83% 29.98 0.0
30 21:55 S 7 10.00 Partly Cloudy SCT041 71.6 66.2 83% 29.98 0.0 0.01
30 21:35 S 7 10.00 Mostly Cloudy BKN041 71.6 66.2 83% 29.97 0.0
30 21:15 SE 7 10.00 Partly Cloudy SCT046 71.6 66.2 83% 29.97 0.0
30 20:55 S 7 10.00 Overcast BKN048 OVC050 71.6 66.2 83% 29.97 0.0 0.01
30 20:35 SE 9 10.00 Overcast BKN048 OVC060 73.4 66.2 78% 29.96 0.0
30 20:15 SE 9 10.00 Overcast OVC048 73.4 66.2 78% 29.97 0.0
30 19:55 SE 8 10.00 Overcast OVC050 73.4 68 77.9 70.5 83% 29.97 0.0 0.02
30 19:35 SE 8 10.00 Overcast OVC050 75.2 68 78% 76 29.97 0.0
30 19:15 S 10 10.00 Mostly Cloudy BKN055 75.2 68 78% 76 29.96 0.0
30 18:55 S 7 10.00 Fair CLR 77 68 74% 79 29.97 0.0 0.02
30 18:35 S 10 10.00 Fair CLR 77 68 74% 79 29.97 0.0
30 18:15 S 10 10.00 A Few Clouds FEW032 FEW040 77 68 74% 79 29.98 0.0
30 17:55 S 9 10.00 Partly Cloudy SCT034 SCT041 SCT100 77 68 74% 79 29.98 0.0 0.03
30 17:35 S 10 10.00 Mostly Cloudy SCT034 SCT080 BKN100 77 68 74% 79 29.98 0.0
30 17:15 S 8 10.00 Overcast SCT021 BKN026 OVC100 77 69.8 79% 79 29.99 0.0
30 16:55 S 9 10.00 Overcast OVC023 77 68 74% 79 29.99 0.0 0.03
30 16:35 S 9 10.00 Overcast BKN020 BKN027 OVC090 77 68 74% 79 29.99 0.0
30 16:15 S 8 7.00 Overcast with Haze SCT019 BKN090 OVC110 75.2 68 78% 76 29.99 0.0
30 15:55 S 8 10.00 Mostly Cloudy SCT090 BKN110 75.2 68 78% 76 29.98 0.0 0.03
30 15:35 S 8 7.00 Mostly Cloudy BKN080 BKN110 75.2 68 78% 76 29.99 0.0
30 15:15 S 7 10.00 Overcast SCT019 OVC080 73.4 66.2 78% 30 0.0
30 14:55 S 10 10.00 Overcast BKN019 BKN024 OVC080 73.4 68 83% 30.01 0.0 0.04
30 14:35 S 8 10.00 Overcast OVC019 73.4 68 83% 30.01 0.0
30 14:15 S 8 10.00 Overcast OVC017 71.6 68 88% 30.01 0.0
30 13:55 S 9 10.00 Overcast SCT017 SCT024 OVC080 71.6 68 70.7 64.4 88% 30.01 0.0 0.05
30 13:35 S 9 10.00 Overcast OVC080 69.8 66.2 88% 30.01 0.0
30 13:15 S 10 10.00 Overcast FEW050 FEW065 OVC075 68 66.2 94% 30.02 0.0
30 12:55 S 8 10.00 Overcast FEW048 FEW055 OVC075 68 66.2 94% 30.03 0.0 0.07
30 12:35 S 8 10.00 Light Rain OVC075 68 64.4 88% 30.03 0.0
30 12:15 S 8 10.00 Overcast BKN070 OVC075 68 64.4 88% 30.03 0.0
30 11:55 S 10 10.00 Light Rain SCT008 SCT035 OVC070 66.2 64.4 94% 30.03 0.0 0.06
30 11:35 S 9 3.00 Light Rain Fog/Mist BKN009 BKN015 OVC070 66.2 64.4 94% 30.04 0.0
30 11:15 S 12 4.00 Light Rain Fog/Mist SCT011 BKN065 OVC090 66.2 64.4 94% 30.04 0.0
30 10:55 S 10 6.00 Light Rain Fog/Mist SCT060 BKN075 OVC095 66.2 64.4 94% 30.05 0.0 0.07
30 10:35 S 8 4.00 Light Rain Fog/Mist BKN005 BKN032 OVC055 66.2 64.4 94% 30.06 0.0
30 10:15 S 9 4.00 Light Rain Fog/Mist OVC005 66.2 64.4 94% 30.06 0.0
30 09:55 S 6 4.00 Light Rain Fog/Mist SCT005 OVC055 66.2 64.4 94% 30.08 0.0 0.08
30 09:35 S 14 4.00 Light Rain Fog/Mist SCT034 BKN055 OVC065 66.2 64.4 94% 30.06 0.0
30 09:15 S 9 3.00 Light Rain Fog/Mist SCT036 BKN048 OVC060 66.2 64.4 94% 30.07 0.0
30 08:55 S 8 5.00 Light Rain Fog/Mist FEW034 SCT043 OVC050 66.2 64.4 94% 30.07 0.0 0.03
30 08:35 S 7 7.00 Light Rain Fog/Mist BKN038 BKN049 OVC090 64.4 64.4 100% 30.08 0.0
30 08:15 S 6 9.00 Light Rain SCT046 BKN050 OVC090 64.4 62.6 94% 30.07 0.0
30 07:55 S 3 5.00 Light Rain Fog/Mist SCT033 BKN050 OVC055 64.4 62.6 67.1 64.2 94% 30.08 0.0 0.07
30 07:35 S 5 5.00 Light Rain Fog/Mist SCT034 SCT042 OVC095 64.4 62.6 94% 30.07 0.0
30 07:15 SE 7 8.00 Light Rain BKN075 BKN095 OVC110 64.4 62.6 94% 30.05 0.0
30 06:55 SE 3 10.00 Light Rain BKN055 BKN080 OVC110 64.4 60.8 88% 30.06 0.0 0.02
30 06:35 E 7 8.00 Light Rain FEW070 BKN100 BKN110 64.4 62.6 94% 30.04 0.0
30 06:15 SE 5 10.00 Light Rain OVC090 66.2 62.6 88% 30.04 0.0
30 05:55 SE 7 10.00 Overcast OVC090 66.2 62.6 88% 30.04 0.0 0.01
30 05:35 SE 7 10.00 Overcast OVC090 66.2 62.6 88% 30.05 0.0
30 05:15 E 6 10.00 Overcast OVC090 64.4 64.4 100% 30.06 0.0
30 04:55 SE 5 10.00 Light Rain OVC090 66.2 64.4 94% 30.06 0.0
30 04:35 S 3 10.00 Light Rain OVC090 66.2 64.4 94% 30.07 0.0
30 04:15 SE 2 10.00 Overcast OVC090 66.2 62.6 88% 30.07 0.0
30 03:55 S 5 10.00 Overcast OVC100 66.2 62.6 88% 30.07 0.0 0.02
30 03:35 SE 7 10.00 Light Rain OVC100 66.2 64.4 94% 30.07 0.0
30 03:15 SE 5 10.00 Overcast OVC090 66.2 64.4 94% 30.08 0.0
30 02:55 SE 2 10.00 Light Rain OVC090 66.2 64.4 94% 30.08 0.0 0.01
30 02:35 SE 3 10.00 Light Rain OVC080 66.2 64.4 94% 30.08 0.0
30 02:15 S 2 10.00 Overcast BKN080 OVC090 66.2 64.4 94% 30.09 0.0
30 01:55 SE 3 10.00 Light Rain FEW050 FEW070 OVC100 68 64.4 73.4 66.7 88% 30.09 0.0
30 01:35 SE 5 10.00 Overcast FEW050 FEW070 OVC090 68 64.4 88% 30.09 0.0
30 01:15 SE 6 10.00 Overcast OVC090 66.2 64.4 94% 30.09 0.0
30 00:55 SE 6 9.00 Light Rain FEW060 OVC090 66.2 64.4 94% 30.09 0.0 0.02
30 00:35 SE 5 9.00 Light Rain FEW047 BKN075 OVC100 68 64.4 88% 30.1 0.0
30 00:15 E 3 6.00 Light Rain Fog/Mist SCT060 BKN075 OVC100 68 66.2 94% 30.1 0.0
29 23:55 E 2 10.00 Light Drizzle FEW044 BKN050 OVC085 68 64.4 88% 30.1 0.0 0.01
29 23:35 E 3 10.00 Light Rain SCT037 BKN055 OVC095 68 64.4 88% 30.09 0.0
29 23:15 Calm 10.00 Overcast BKN037 BKN044 OVC080 68 64.4 88% 30.09 0.0
29 22:55 N 1 10.00 Light Rain FEW050 FEW060 OVC080 68 64.4 88% 30.09 0.0
29 22:35 Calm 9.00 Light Rain OVC090 69.8 64.4 83% 30.09 0.0
29 22:15 SW 3 10.00 Light Rain BKN090 OVC110 69.8 64.4 83% 30.09 0.0
29 21:55 SW 3 10.00 Overcast OVC090 71.6 62.6 73% 30.08 0.0
29 21:35 SW 3 10.00 Overcast OVC090 69.8 62.6 78% 30.08 0.0
29 21:15 SW 3 10.00 Overcast OVC100 69.8 62.6 78% 30.07 0.0
29 20:55 SW 3 10.00 Overcast BKN100 OVC120 71.6 60.8 69% 30.07 0.0
29 20:35 SW 5 10.00 Overcast OVC110 71.6 62.6 73% 30.07 0.0
29 20:15 SW 5 10.00 Overcast OVC110 71.6 60.8 69% 30.07 0.0
29 19:55 SW 6 10.00 Partly Cloudy SCT110 73.4 60.8 83.3 72.9 65% 30.07 0.0
29 19:35 SW 6 10.00 Fair CLR 73.4 62.6 69% 30.07 0.0
29 19:15 SW 6 10.00 Fair CLR 75.2 60.8 61% 77 30.07 0.0
29 18:55 SW 7 10.00 Fair CLR 75.2 62.6 65% 77 30.07 0.0
29 18:35 SW 6 10.00 Fair CLR 77 60.8 57% 79 30.07 0.0
29 18:15 SW 6 10.00 Fair CLR 77 60.8 57% 79 30.07 0.0
29 17:55 SW 7 10.00 Fair CLR 77 60.8 57% 79 30.08 0.0
29 17:35 SW 7 10.00 Fair CLR 77 60.8 57% 79 30.08 0.0
29 17:15 SW 7 10.00 Fair CLR 77 60.8 57% 79 30.08 0.0
29 16:35 SW 10 10.00 Fair CLR 77 59 54% 79 30.09 0.0
29 16:15 SW 13 10.00 Fair CLR 78.8 59 51% 80 30.1 0.0
29 15:55 SW 13 10.00 Fair CLR 78.8 60.8 54% 80 30.1 0.0
29 15:35 SW 13 10.00 Fair CLR 78.8 60.8 54% 80 30.11 0.0
29 15:15 SW 13 G 18 10.00 A Few Clouds FEW050 FEW065 78.8 60.8 54% 80 30.11 0.0
29 14:55 SW 14 10.00 Partly Cloudy FEW050 SCT065 80.6 60.8 51% 81 30.11 0.0
29 14:35 SW 14 10.00 Partly Cloudy SCT050 SCT065 82.4 59 45% 82 30.11 0.0
29 14:15 SW 15 G 20 10.00 Mostly Cloudy BKN055 BKN065 82.4 60.8 48% 83 30.11 0.0
29 13:55 SW 17 G 21 10.00 Mostly Cloudy BKN050 BKN065 82.4 60.8 82.4 61.3 48% 83 30.12 0.0
29 13:35 SW 14 G 17 10.00 Fair CLR 80.6 60.8 51% 81 30.12 0.0
29 13:15 SW 14 G 18 10.00 Fair CLR 80.6 59 48% 81 30.12 0.0
29 12:55 SW 14 10.00 Fair CLR 78.8 59 51% 80 30.13 0.0
29 12:35 SW 17 G 22 10.00 Fair CLR 78.8 59 51% 80 30.13 0.0
29 12:15 SW 14 G 21 10.00 Fair CLR 78.8 60.8 54% 80 30.15 0.0
29 11:55 W 15 10.00 Fair CLR 78.8 59 51% 80 30.15 0.0
29 11:35 W 13 10.00 Fair CLR 77 60.8 57% 79 30.15 0.0
29 11:15 SW 15 G 22 10.00 Fair CLR 75.2 59 57% 78 30.16 0.0
29 10:55 SW 12 10.00 Fair CLR 73.4 59 61% 30.16 0.0
29 10:35 SW 10 10.00 Fair CLR 71.6 57.2 61% 30.16 0.0
29 10:15 SW 10 10.00 Fair CLR 69.8 57.2 64% 30.15 0.0
29 09:55 SW 9 10.00 Partly Cloudy SCT055 68 55.4 64% 30.15 0.0
29 09:35 SW 12 10.00 Mostly Cloudy SCT055 BKN070 66.2 55.4 68% 30.15 0.0
29 09:15 S 9 10.00 Mostly Cloudy SCT055 BKN070 66.2 55.4 68% 30.15 0.0
29 08:55 SW 9 10.00 Overcast OVC065 64.4 55.4 73% 30.16 0.0
29 08:35 SW 8 10.00 Overcast BKN070 OVC075 64.4 55.4 73% 30.16 0.0
29 08:15 S 10 10.00 Mostly Cloudy SCT065 BKN075 BKN085 62.6 55.4 77% 30.15 0.0
29 07:55 S 7 10.00 Partly Cloudy SCT085 60.8 55.4 63.1 58.6 83% 30.16 0.0
29 07:35 SW 7 10.00 Fair CLR 59 55.4 88% 30.16 0.0
29 07:15 SW 5 10.00 Fair CLR 59 55.4 88% 30.16 0.0
29 06:55 S 6 10.00 Fair CLR 59 55.4 88% 30.15 0.0
29 06:35 S 3 10.00 Fair CLR 59 55.4 88% 30.14 0.0
29 06:15 S 5 10.00 Fair CLR 59 55.4 88% 30.14 0.0
29 05:55 S 7 10.00 Partly Cloudy SCT080 60.8 57.2 88% 30.14 0.0
29 05:35 SW 7 10.00 Overcast OVC080 62.6 57.2 83% 30.15 0.0
29 05:15 SW 7 10.00 Mostly Cloudy BKN080 62.6 57.2 83% 30.15 0.0
29 04:55 SW 9 10.00 Fair CLR 62.6 57.2 83% 30.15 0.0
29 04:35 S 9 10.00 Fair CLR 62.6 57.2 83% 30.14 0.0
29 04:15 SW 10 10.00 Fair CLR 62.6 57.2 83% 30.14 0.0
29 03:55 S 10 10.00 Fair CLR 62.6 57.2 83% 30.14 0.0
29 03:35 S 9 10.00 Fair CLR 62.6 57.2 83% 30.14 0.0
29 03:15 S 8 10.00 Fair CLR 62.6 57.2 83% 30.14 0.0
29 02:55 S 8 10.00 Fair CLR 62.6 57.2 83% 30.14 0.0
29 02:35 S 8 10.00 Fair CLR 62.6 57.2 83% 30.14 0.0
29 02:15 S 7 10.00 Fair CLR 60.8 57.2 88% 30.14 0.0
29 01:55 S 7 10.00 Fair CLR 60.8 57.2 69.8 60.3 88% 30.14 0.0
29 01:35 S 6 10.00 Fair CLR 60.8 57.2 88% 30.15 0.0
29 01:15 S 6 10.00 Fair CLR 60.8 55.4 83% 30.15 0.0
29 00:35 S 7 10.00 Fair CLR 60.8 55.4 83% 30.14 0.0
29 00:15 S 6 10.00 Fair CLR 60.8 55.4 83% 30.14 0.0
28 23:35 SE 6 10.00 Fair CLR 62.6 57.2 83% 30.13 0.0
28 23:15 SE 7 10.00 Fair CLR 62.6 57.2 83% 30.13 0.0
28 22:55 SE 7 10.00 A Few Clouds FEW095 64.4 57.2 78% 30.13 0.0
28 22:35 S 6 10.00 Mostly Cloudy BKN095 64.4 57.2 78% 30.13 0.0
28 22:15 SE 7 10.00 Overcast BKN085 OVC110 64.4 57.2 78% 30.13 0.0
28 21:55 SE 5 10.00 Overcast BKN085 OVC110 64.4 57.2 78% 30.13 0.0
28 21:35 SE 3 10.00 Overcast OVC085 64.4 57.2 78% 30.13 0.0
28 21:15 SE 3 10.00 Mostly Cloudy FEW060 BKN085 66.2 57.2 73% 30.13 0.0
28 20:55 SE 5 10.00 Mostly Cloudy BKN085 66.2 57.2 73% 30.12 0.0
28 20:35 SE 5 9.00 Partly Cloudy FEW090 SCT110 68 57.2 69% 30.11 0.0
28 20:15 SE 6 10.00 Overcast FEW080 OVC110 69.8 57.2 64% 30.12 0.0
28 19:55 E 2 10.00 Mostly Cloudy BKN110 69.8 57.2 74.8 69.6 64% 30.12 0.0
28 19:35 SE 3 10.00 Mostly Cloudy BKN100 69.8 57.2 64% 30.12 0.0
28 19:15 SE 5 10.00 A Few Clouds FEW085 71.6 57.2 61% 30.12 0.0
28 18:55 SE 6 10.00 Partly Cloudy SCT095 71.6 57.2 61% 30.13 0.0
28 18:35 S 6 10.00 Partly Cloudy SCT095 73.4 55.4 53% 30.14 0.0
28 18:15 S 5 10.00 Fair CLR 75.2 53.6 47% 78 30.14 0.0
28 17:55 S 6 10.00 Fair CLR 75.2 53.6 47% 78 30.14 0.0
28 17:35 S 6 10.00 A Few Clouds FEW060 75.2 55.4 50% 78 30.14 0.0
28 17:15 S 6 10.00 Mostly Cloudy BKN060 75.2 53.6 47% 78 30.14 0.0
28 16:55 SE 5 10.00 Partly Cloudy SCT060 SCT080 75.2 51.8 44% 78 30.14 0.0
28 16:35 S 6 10.00 Mostly Cloudy BKN060 BKN080 75.2 55.4 50% 78 30.15 0.0
28 16:15 S 5 10.00 Mostly Cloudy BKN065 BKN070 73.4 55.4 53% 30.15 0.0
28 15:55 Vrbl 2 9.00 Mostly Cloudy BKN065 BKN100 73.4 55.4 53% 30.15 0.0
28 15:35 E 2 10.00 Mostly Cloudy BKN075 BKN100 73.4 55.4 53% 30.15 0.0
28 15:15 SW 5 10.00 Mostly Cloudy BKN075 BKN100 73.4 55.4 53% 30.16 0.0
28 14:55 Vrbl 6 9.00 Overcast SCT075 OVC100 73.4 57.2 57% 30.17 0.0
28 14:35 Vrbl 5 10.00 Overcast BKN075 OVC110 73.4 57.2 57% 30.17 0.0
28 14:15 Vrbl 2 10.00 Overcast OVC075 73.4 55.4 53% 30.18 0.0
28 13:55 Calm 9.00 Overcast OVC075 71.6 55.4 72.1 54.7 57% 30.18 0.0
28 13:35 Vrbl 3 10.00 Overcast OVC075 71.6 57.2 61% 30.18 0.0
28 13:15 Vrbl 2 10.00 Overcast OVC075 71.6 55.4 57% 30.19 0.0
28 12:55 NE 3 10.00 Mostly Cloudy BKN075 BKN090 69.8 57.2 64% 30.19 0.0
28 12:35 NW 2 10.00 Overcast BKN075 OVC090 68 57.2 69% 30.19 0.0
28 12:15 Vrbl 2 10.00 Overcast OVC075 68 57.2 69% 30.2 0.0
28 11:55 N 2 10.00 Overcast OVC065 68 55.4 64% 30.2 0.0
Date Time (edt) Wind (mph) Vis. (mi.) Weather Sky Cond. Air Dwpt Max. Min. Relative Humidity Wind Chill (°F) Heat Index (°F) altimeter (in) sea level (mb) 1 hr 3 hr 6 hr
6 hour
Temperature (ºF) Pressure Precipitation (in)